カタログに戻る

DELTA 1 DEB

運用中PO
NORAD 21361·DEBRIS·🇺🇸 United States

打ち上げ Jun 12, 1975 から Vandenberg Space Force Base

Loading…

次のパス (今後24時間)

TLE

最新Source: Space-Track

元期: Sep 14, 2026, 13:19 UTC

1 21361U 75052CF  26257.55491865  .00000195  00000-0  12926-2 0  9994
2 21361  99.5948 115.9980 0690016  50.0263 341.2314 12.03671296 13368

AllMySatでDELTA 1 DEBをリアルタイム追跡

Download on the App Store